Regional Weather Roundup
Issued by NWS

Home | Current Version | Previous Version | Text Only | Print | Product List | Glossary On
Versions: 1 2 3 4 5 6 7 8 9 10 11 12 13 14 15 16 17 18 19 20 21 22 23 24 25 26 27 28 29 30 31 32 33 34 35 36 37 38 39 40 41 42 43 44 45 46 47 48 49 50
000
ASUS43 KBIS 242310
RWRND

NORTH DAKOTA REGIONAL WEATHER ROUNDUP
NATIONAL WEATHER SERVICE BISMARCK ND
500 PM CST TUE JAN 24 2017

NOTE: "FAIR" INDICATES FEW OR NO CLOUDS BELOW 12,000 FEET WITH NO
SIGNIFICANT WEATHER AND/OR OBSTRUCTIONS TO VISIBILITY.


NDZ001>003-009>011-017-250000-
NORTHWEST NORTH DAKOTA

CITY           SKY/WX    TMP DP  RH WIND       PRES   REMARKS
WILLISTON      CLOUDY    18  13  80 NW12      29.94R WCI   5
MINOT          CLOUDY    22  17  81 NW15      29.89R WCI   9
$$

NDZ018>021-031>035-040>046-250000-
SOUTHWEST NORTH DAKOTA

CITY           SKY/WX    TMP DP  RH WIND       PRES   REMARKS
BISMARCK       CLOUDY    26  18  71 NW10      29.89R WCI  16
DICKINSON      FAIR      18  13  80 NW10      29.85R WCI   6
GARRISON         N/A     22  17  81 NW14      29.89R WCI   9
HETTINGER ARPT CLOUDY    20  15  81 NW14      29.86R WCI   7
$$

NDZ004>008-012>016-024-026-027-054-250000-
NORTHEAST NORTH DAKOTA

CITY           SKY/WX    TMP DP  RH WIND       PRES   REMARKS
GRAND FORKS    CLOUDY    28  22  78 W3        29.89R
GRND FRKS AFB  CLOUDY    27  23  83 CALM      29.89R
DEVILS LAKE    CLOUDY    24  21  88 W9        29.88R WCI  14
$$

NDZ022-023-025-028>030-036>039-047>053-250000-
SOUTHEAST NORTH DAKOTA

CITY           SKY/WX    TMP DP  RH WIND       PRES   REMARKS
FARGO          CLOUDY    30  23  75 N9        29.86F
JAMESTOWN      CLOUDY    24  20  84 N15       29.84S WCI  11
$$




USA.gov is the U.S. government's official web portal to all federal, state and local government web resources and services.